TimeCST,TemperatureF,Dew PointF,Humidity,Sea Level PressureIn,VisibilityMPH,Wind Direction,Wind SpeedMPH,Gust SpeedMPH,PrecipitationIn,Events,Conditions,WindDirDegrees,DateUTC
12:56 AM,37.0,30.9,79,29.64,10.0,SW,5.8,-,N/A,,Overcast,230,2014-01-04 06:56:00
1:56 AM,39.0,32.0,76,29.66,10.0,West,8.1,-,N/A,,Overcast,260,2014-01-04 07:56:00
2:56 AM,42.1,30.0,62,29.68,10.0,NW,21.9,29.9,N/A,,Mostly Cloudy,310,2014-01-04 08:56:00
3:56 AM,37.9,28.0,68,29.75,10.0,NW,23.0,33.4,N/A,,Overcast,320,2014-01-04 09:56:00
4:56 AM,28.0,21.9,78,29.81,9.0,NNW,31.1,39.1,N/A,,Overcast,330,2014-01-04 10:56:00
5:21 AM,24.1,17.1,75,29.80,10.0,NNW,33.4,41.4,N/A,,Overcast,340,2014-01-04 11:21:00
5:56 AM,21.9,14.0,72,29.89,10.0,NNW,26.5,39.1,N/A,,Overcast,340,2014-01-04 11:56:00
6:14 AM,19.9,10.9,68,29.86,10.0,NNW,29.9,39.1,N/A,,Scattered Clouds,340,2014-01-04 12:14:00
6:56 AM,18.0,10.0,71,29.94,10.0,North,26.5,42.6,N/A,,Mostly Cloudy,350,2014-01-04 12:56:00
7:04 AM,18.0,10.0,71,29.89,10.0,North,28.8,38.0,N/A,,Mostly Cloudy,350,2014-01-04 13:04:00
7:56 AM,18.0,10.9,74,29.97,10.0,North,21.9,27.6,N/A,,Overcast,350,2014-01-04 13:56:00
8:56 AM,17.1,10.0,74,30.02,8.0,NNW,21.9,29.9,0.00,Snow,Light Snow,340,2014-01-04 14:56:00
9:56 AM,16.0,8.1,71,30.06,8.0,NNW,20.7,29.9,0.00,Snow,Light Snow,340,2014-01-04 15:56:00
10:56 AM,16.0,7.0,68,30.09,10.0,North,24.2,32.2,0.00,,Mostly Cloudy,350,2014-01-04 16:56:00
11:56 AM,18.0,9.0,68,30.08,9.0,North,23.0,32.2,0.00,,Overcast,360,2014-01-04 17:56:00
12:56 PM,19.0,9.0,65,30.06,10.0,North,19.6,-,N/A,,Mostly Cloudy,360,2014-01-04 18:56:00
1:10 PM,19.9,10.0,65,30.00,10.0,North,21.9,29.9,N/A,,Scattered Clouds,360,2014-01-04 19:10:00
1:56 PM,19.9,10.0,65,30.08,10.0,North,19.6,-,N/A,,Clear,350,2014-01-04 19:56:00
2:56 PM,19.9,10.9,68,30.09,10.0,North,17.3,27.6,N/A,,Mostly Cloudy,350,2014-01-04 20:56:00
3:56 PM,19.0,10.0,68,30.13,10.0,NNW,16.1,-,N/A,,Overcast,340,2014-01-04 21:56:00
4:16 PM,18.0,9.0,68,30.08,10.0,North,19.6,26.5,N/A,,Scattered Clouds,350,2014-01-04 22:16:00
4:56 PM,17.1,8.1,68,30.17,10.0,North,18.4,-,N/A,,Clear,350,2014-01-04 22:56:00
5:56 PM,16.0,6.1,65,30.20,10.0,North,18.4,24.2,N/A,,Clear,350,2014-01-04 23:56:00
6:56 PM,14.0,6.1,71,30.24,10.0,North,23.0,28.8,N/A,,Clear,350,2014-01-05 00:56:00
7:56 PM,10.9,1.9,67,30.30,10.0,NNW,16.1,27.6,N/A,,Clear,340,2014-01-05 01:56:00
8:56 PM,8.1,-2.0,64,30.31,10.0,North,20.7,-,N/A,,Clear,350,2014-01-05 02:56:00
9:56 PM,7.0,-2.0,67,30.31,10.0,North,17.3,26.5,N/A,,Clear,350,2014-01-05 03:56:00
10:56 PM,6.1,-2.9,67,30.34,10.0,North,15.0,-,N/A,,Clear,350,2014-01-05 04:56:00
11:56 PM,6.1,-4.0,63,30.34,10.0,North,16.1,-,N/A,,Scattered Clouds,350,2014-01-05 05:56:00